GW3170 Weather Reports


Display with metric or nautical units.
time (UTC)temp
F
wind
direction
speed
MPH
gust
MPH
rain 1hr
in
rain 24hr
in
rain mn
in
humidity
%
barometer
mb
20260906031602 60 0 0.0 0.0 0.00 0.00 0.00 93 1014.9
20260906031112 60 0 0.0 0.0 0.00 0.00 0.00 93 1014.9
20260906030558 59 0 0.0 0.0 0.00 0.00 0.00 93 1014.9
20260906030107 59 0 0.0 0.0 0.00 0.00 0.00 93 1014.9
20260906025556 59 0 0.0 0.0 0.00 0.00 0.00 92 1014.9
20260906025057 59 0 0.0 0.0 0.00 0.00 0.00 92 1014.7
20260906024604 59 0 0.0 0.0 0.00 0.00 0.00 92 1014.8
20260906024057 59 0 0.0 0.0 0.00 0.00 0.00 92 1014.7
20260906023556 59 0 0.0 0.0 0.00 0.00 0.00 91 1014.8
20260906023103 59 0 0.0 0.0 0.00 0.00 0.00 91 1014.8
20260906022600 59 0 0.0 0.0 0.00 0.00 0.00 91 1014.7
20260906022100 59 0 0.0 0.0 0.00 0.00 0.00 91 1014.9
20260906021609 59 0 0.0 0.0 0.00 0.00 0.00 91 1014.8
20260906021058 59 0 0.0 0.0 0.00 0.00 0.00 91 1014.7
20260906020557 59 0 0.0 0.0 0.00 0.00 0.00 91 1014.7
20260906020107 60 0 0.0 0.0 0.00 0.00 0.00 91 1014.6
20260906015557 60 0 0.0 0.0 0.00 0.00 0.00 90 1014.6
20260906015057 60 0 0.0 0.0 0.00 0.00 0.00 90 1014.6
20260906014602 60 0 0.0 0.0 0.00 0.00 0.00 90 1014.6
20260906014101 60 0 0.0 0.0 0.00 0.00 0.00 90 1014.6
20260906013557 60 0 0.0 0.0 0.00 0.00 0.00 90 1014.5
20260906013104 60 0 0.0 0.0 0.00 0.00 0.00 90 1014.5
20260906012557 61 0 0.0 0.0 0.00 0.00 0.00 90 1014.6
20260906012056 61 0 0.0 0.0 0.00 0.00 0.00 89 1014.5
20260906011603 61 0 0.0 0.0 0.00 0.00 0.00 89 1014.5
20260906011101 61 0 0.0 0.0 0.00 0.00 0.00 89 1014.4
20260906010557 61 0 0.0 0.0 0.00 0.00 0.00 89 1014.3
20260906010109 61 0 0.0 0.0 0.00 0.00 0.00 88 1014.4
20260906005556 62 0 0.0 0.0 0.00 0.00 0.00 88 1014.5
20260906005057 62 0 0.0 0.0 0.00 0.00 0.00 88 1014.4
20260906004605 62 0 0.0 0.0 0.00 0.00 0.00 88 1014.3
20260906004057 62 0 0.0 0.0 0.00 0.00 0.00 87 1014.2
20260906003557 63 0 0.0 0.0 0.00 0.00 0.00 87 1014.2
20260906003108 63 0 0.0 0.0 0.00 0.00 0.00 86 1014.3
20260906002556 63 0 0.0 0.0 0.00 0.00 0.00 86 1014.3
20260906002057 64 0 0.0 0.0 0.00 0.00 0.00 85 1014.2
20260906001617 64 0 0.0 0.0 0.00 0.00 0.00 85 1014.3
20260906001057 64 0 0.0 0.0 0.00 0.00 0.00 84 1014.4
20260906000558 65 0 0.0 0.0 0.00 0.00 0.00 84 1014.2
20260906000108 65 0 0.0 0.0 0.00 0.00 0.00 83 1014.3
20260905235557 66 0 0.0 0.0 0.00 0.00 0.00 83 1014.3
20260905235057 66 0 0.0 0.0 0.00 0.00 0.00 82 1014.3
20260905234602 66 0 0.0 0.0 0.00 0.00 0.00 82 1014.3
20260905234057 67 0 0.0 0.0 0.00 0.00 0.00 81 1014.2
20260905233557 67 0 0.0 0.0 0.00 0.00 0.00 80 1014.2
20260905233112 68 0 0.0 0.0 0.00 0.00 0.00 79 1014.2
20260905232555 68 0 0.0 0.0 0.00 0.00 0.00 79 1014.3
20260905232059 69 0 0.0 1.0 0.00 0.00 0.00 77 1014.1
20260905231603 70 0 0.0 1.0 0.00 0.00 0.00 76 1014.2
20260905231059 71 0 0.0 1.0 0.00 0.00 0.00 74 1014.2
20260905230557 72 0 0.0 2.0 0.00 0.00 0.00 72 1014.2
20260905230059 73 0 0.0 2.0 0.00 0.00 0.00 71 1014.1
20260905225557 74 0 0.0 1.0 0.00 0.00 0.00 69 1014.0
20260905225054 75 0 0.0 0.0 0.00 0.00 0.00 68 1013.9
20260905224609 75 0 0.0 0.0 0.00 0.00 0.00 68 1014.1
20260905224056 75 0 0.0 0.0 0.00 0.00 0.00 68 1014.1
20260905223558 75 0 0.0 0.0 0.00 0.00 0.00 68 1014.2
20260905223104 75 0 0.0 0.0 0.00 0.00 0.00 69 1014.2
20260905222557 75 0 0.0 0.0 0.00 0.00 0.00 68 1014.3
20260905222057 75 0 0.0 2.0 0.00 0.00 0.00 69 1014.1
20260905221606 75 0 0.0 2.0 0.00 0.00 0.00 69 1014.1
20260905221057 75 0 0.0 6.0 0.00 0.00 0.00 69 1014.1
20260905220556 75 0 0.0 6.0 0.00 0.00 0.00 69 1014.1
20260905220105 76 0 0.0 0.0 0.00 0.00 0.00 67 1014.1
20260905215558 76 0 0.0 1.0 0.00 0.00 0.00 69 1013.9
20260905215059 75 0 0.0 5.0 0.00 0.00 0.00 69 1013.8
20260905214603 75 0 0.0 5.0 0.00 0.00 0.00 69 1013.8
20260905214057 75 331 0.0 2.0 0.00 0.00 0.00 67 1013.7
20260905213557 75 292 0.0 1.0 0.00 0.00 0.00 67 1013.6
20260905213109 75 18 0.0 1.0 0.00 0.00 0.00 67 1013.6
20260905212555 75 0 0.0 2.0 0.00 0.00 0.00 67 1013.6
20260905212056 75 0 0.0 3.0 0.00 0.00 0.00 67 1013.5
20260905211604 75 0 0.0 3.0 0.00 0.00 0.00 67 1013.4
20260905211058 75 0 0.0 5.0 0.00 0.00 0.00 68 1013.5
20260905210558 75 58 0.0 5.0 0.00 0.00 0.00 67 1013.5
20260905210113 75 0 0.0 5.0 0.00 0.00 0.00 67 1013.5
20260905205557 75 0 0.0 5.0 0.00 0.00 0.00 66 1013.5
20260905205059 76 0 0.0 5.0 0.00 0.00 0.00 67 1013.6
20260905204604 76 316 0.0 3.0 0.00 0.00 0.00 69 1013.4
20260905204057 75 0 0.0 2.0 0.00 0.00 0.00 68 1013.4
20260905203555 75 0 0.0 6.0 0.00 0.00 0.00 68 1013.5
20260905203107 74 340 0.0 6.0 0.00 0.00 0.00 68 1013.5
20260905202557 74 0 1.0 4.0 0.00 0.00 0.00 66 1013.5
20260905202057 75 0 0.0 5.0 0.00 0.00 0.00 65 1013.5
20260905201609 75 0 1.0 5.0 0.00 0.00 0.00 66 1013.6
20260905201056 75 0 0.0 5.0 0.00 0.00 0.00 68 1013.6
20260905200557 75 357 1.0 5.0 0.00 0.00 0.00 67 1013.5
20260905200152 75 331 0.0 7.0 0.00 0.00 0.00 68 1013.5
20260905195601 75 0 0.0 7.0 0.00 0.00 0.00 67 1013.5
20260905195057 75 0 1.0 7.0 0.00 0.00 0.00 68 1013.4
20260905194616 75 297 2.0 5.0 0.00 0.00 0.00 66 1013.6
20260905194057 76 323 0.0 3.0 0.00 0.00 0.00 66 1013.6
20260905193557 76 0 1.0 4.0 0.00 0.00 0.00 65 1013.6
20260905193107 77 0 1.0 4.0 0.00 0.00 0.00 64 1013.5
20260905192557 77 0 0.0 3.0 0.00 0.00 0.00 67 1013.4
20260905192056 76 0 0.0 1.0 0.00 0.00 0.00 67 1013.4
20260905191602 76 0 0.0 1.0 0.00 0.00 0.00 67 1013.3
20260905191100 76 0 0.0 5.0 0.00 0.00 0.00 65 1013.3
20260905190557 76 0 0.0 5.0 0.00 0.00 0.00 66 1013.4
20260905190115 76 0 1.0 5.0 0.00 0.00 0.00 67 1013.4
20260905185556 76 0 1.0 4.0 0.00 0.00 0.00 67 1013.5
20260905185100 76 0 0.0 3.0 0.00 0.00 0.00 68 1013.4
20260905184628 75 295 0.0 2.0 0.00 0.00 0.00 66 1013.4
20260905184059 75 0 0.0 6.0 0.00 0.00 0.00 68 1013.4
20260905183559 75 342 2.0 6.0 0.00 0.00 0.00 69 1013.4
20260905183125 74 345 0.0 3.0 0.00 0.00 0.00 70 1013.3
20260905182557 74 0 1.0 3.0 0.00 0.00 0.00 70 1013.3
20260905182057 74 0 0.0 6.0 0.00 0.00 0.00 72 1013.3
20260905181621 74 0 1.0 6.0 0.00 0.00 0.00 69 1013.5
20260905181057 74 0 0.0 4.0 0.00 0.00 0.00 71 1013.4
20260905180557 74 0 0.0 5.0 0.00 0.00 0.00 69 1013.4
20260905180125 75 0 0.0 5.0 0.00 0.00 0.00 70 1013.4
20260905175559 74 318 0.0 5.0 0.00 0.00 0.00 72 1013.2
20260905175056 73 0 0.0 3.0 0.00 0.00 0.00 73 1013.2
20260905174607 73 0 0.0 3.0 0.00 0.00 0.00 72 1013.3
20260905174056 74 0 0.0 3.0 0.00 0.00 0.00 71 1013.2
20260905173557 74 0 0.0 3.0 0.00 0.00 0.00 70 1013.2
20260905173103 74 325 0.0 3.0 0.00 0.00 0.00 71 1013.2
20260905172557 73 328 0.0 2.0 0.00 0.00 0.00 73 1013.3
20260905172057 72 0 0.0 1.0 0.00 0.00 0.00 73 1013.4
20260905171607 73 0 0.0 0.0 0.00 0.00 0.00 72 1013.5
20260905171058 73 0 0.0 0.0 0.00 0.00 0.00 71 1013.4
20260905170557 73 0 0.0 0.0 0.00 0.00 0.00 70 1013.4
20260905170109 74 0 0.0 2.0 0.00 0.00 0.00 70 1013.6
20260905165556 74 0 0.0 2.0 0.00 0.00 0.00 69 1013.5
20260905165100 74 0 0.0 4.0 0.00 0.00 0.00 71 1013.4
20260905164605 73 0 0.0 4.0 0.00 0.00 0.00 70 1013.5
20260905164058 73 0 0.0 1.0 0.00 0.00 0.00 69 1013.5
20260905163557 74 0 0.0 1.0 0.00 0.00 0.00 68 1013.6
20260905163104 73 293 0.0 2.0 0.00 0.00 0.00 72 1013.6
20260905162557 73 0 0.0 2.0 0.00 0.00 0.00 71 1013.6
20260905162057 73 0 0.0 3.0 0.00 0.00 0.00 70 1013.7
20260905161601 73 0 1.0 3.0 0.00 0.00 0.00 69 1013.7
20260905161057 74 0 0.0 2.0 0.00 0.00 0.00 70 1013.7
20260905160559 74 0 0.0 4.0 0.00 0.00 0.00 69 1013.8
20260905160106 74 0 0.0 4.0 0.00 0.00 0.00 67 1013.8
20260905155558 75 332 1.0 4.0 0.00 0.00 0.00 65 1013.7
20260905155057 75 0 0.0 2.0 0.00 0.00 0.00 68 1013.6
20260905154602 75 0 0.0 0.0 0.00 0.00 0.00 68 1013.7
20260905154059 75 0 0.0 0.0 0.00 0.00 0.00 68 1013.7
20260905153556 74 0 0.0 6.0 0.00 0.00 0.00 69 1013.8
20260905153102 74 0 0.0 6.0 0.00 0.00 0.00 68 1013.7
20260905152557 74 0 0.0 6.0 0.00 0.00 0.00 69 1013.7
20260905152057 74 323 1.0 6.0 0.00 0.00 0.00 67 1013.7
20260905151602 74 0 0.0 1.0 0.00 0.00 0.00 72 1013.7
20260905151057 74 0 0.0 2.0 0.00 0.00 0.00 73 1013.8
20260905150557 74 0 0.0 3.0 0.00 0.00 0.00 73 1013.9
20260905150106 73 0 0.0 3.0 0.00 0.00 0.00 73 1013.8
20260905145554 73 0 0.0 3.0 0.00 0.00 0.00 75 1013.8
20260905145057 73 321 0.0 3.0 0.00 0.00 0.00 75 1013.8
20260905144604 72 285 0.0 1.0 0.00 0.00 0.00 74 1013.8
20260905144057 71 0 0.0 2.0 0.00 0.00 0.00 76 1013.8
20260905143557 71 0 0.0 5.0 0.00 0.00 0.00 76 1013.7
20260905143105 71 0 0.0 5.0 0.00 0.00 0.00 75 1013.6
20260905142558 71 0 0.0 5.0 0.00 0.00 0.00 76 1013.6
20260905142057 71 0 0.0 2.0 0.00 0.00 0.00 77 1013.7
20260905141604 71 0 0.0 2.0 0.00 0.00 0.00 77 1013.6
20260905141058 71 0 0.0 2.0 0.00 0.00 0.00 79 1013.7
20260905140557 70 34 0.0 2.0 0.00 0.00 0.00 82 1013.6
20260905140105 70 0 0.0 3.0 0.00 0.00 0.00 82 1013.6
20260905135558 69 0 0.0 4.0 0.00 0.00 0.00 82 1013.6
20260905135057 69 283 0.0 4.0 0.00 0.00 0.00 82 1013.5
20260905134611 69 314 0.0 2.0 0.00 0.00 0.00 83 1013.6
20260905134057 68 0 0.0 2.0 0.00 0.00 0.00 86 1013.5
20260905133556 68 0 0.0 2.0 0.00 0.00 0.00 86 1013.6
20260905133100 67 340 0.0 2.0 0.00 0.00 0.00 88 1013.6
20260905132558 67 0 0.0 6.0 0.00 0.00 0.00 90 1013.6
20260905132058 67 314 1.0 6.0 0.00 0.00 0.00 90 1013.6
20260905131611 66 288 0.0 3.0 0.00 0.00 0.00 92 1013.5
20260905131057 65 0 0.0 3.0 0.00 0.00 0.00 94 1013.7
20260905130600 65 0 1.0 3.0 0.00 0.00 0.00 95 1013.8
20260905125601 64 0 0.0 3.0 0.00 0.00 0.00 96 1013.8
20260905125058 63 0 0.0 3.0 0.00 0.00 0.00 97 1013.9
20260905124604 63 0 0.0 3.0 0.00 0.00 0.00 97 1014.0
20260905124057 62 0 0.0 1.0 0.00 0.00 0.00 97 1013.9
20260905123558 61 0 0.0 0.0 0.00 0.00 0.00 97 1013.8
20260905123108 60 0 0.0 1.0 0.00 0.00 0.00 96 1013.8
20260905122557 59 0 0.0 1.0 0.00 0.00 0.00 97 1013.8
20260905122058 59 0 0.0 0.0 0.00 0.00 0.00 96 1013.8
20260905121603 58 0 0.0 0.0 0.00 0.00 0.00 96 1013.8
20260905121057 58 0 0.0 0.0 0.00 0.00 0.00 96 1013.7
20260905120557 57 0 0.0 0.0 0.00 0.00 0.00 95 1013.7
20260905115557 56 0 0.0 0.0 0.00 0.00 0.00 95 1013.6
20260905115100 56 0 0.0 0.0 0.00 0.00 0.00 95 1013.5
20260905114613 56 0 0.0 0.0 0.00 0.00 0.00 95 1013.4
20260905114100 56 0 0.0 0.0 0.00 0.00 0.00 95 1013.3
20260905113558 55 0 0.0 0.0 0.00 0.00 0.00 95 1013.4
20260905113108 55 0 0.0 0.0 0.00 0.00 0.00 95 1013.4
20260905112557 55 0 0.0 0.0 0.00 0.00 0.00 95 1013.3
20260905112058 55 0 0.0 0.0 0.00 0.00 0.00 95 1013.3
20260905111640 55 0 0.0 0.0 0.00 0.00 0.00 95 1013.4
20260905111057 55 0 0.0 1.0 0.00 0.00 0.00 95 1013.4
20260905110600 55 0 0.0 1.0 0.00 0.00 0.00 94 1013.2
20260905110104 55 0 0.0 1.0 0.00 0.00 0.00 94 1013.2
20260905105558 55 0 0.0 0.0 0.00 0.00 0.00 94 1013.1
20260905105058 55 0 0.0 0.0 0.00 0.00 0.00 94 1013.0
20260905104603 55 0 0.0 0.0 0.00 0.00 0.00 94 1012.9
20260905104056 55 0 0.0 0.0 0.00 0.00 0.00 94 1012.7
20260905103557 55 0 0.0 0.0 0.00 0.00 0.00 94 1012.6
20260905103105 55 0 0.0 0.0 0.00 0.00 0.00 94 1012.7
20260905102559 55 0 0.0 0.0 0.00 0.00 0.00 94 1012.6
20260905102057 56 0 0.0 0.0 0.00 0.00 0.00 94 1012.6
20260905101602 55 0 0.0 0.0 0.00 0.00 0.00 94 1012.6
20260905101057 55 0 0.0 0.0 0.00 0.00 0.00 94 1012.6
20260905100558 56 0 0.0 0.0 0.00 0.00 0.00 94 1012.6
20260905100107 56 0 0.0 0.0 0.00 0.00 0.00 94 1012.6
20260905095556 56 0 0.0 0.0 0.00 0.00 0.00 94 1012.7
20260905095057 55 0 0.0 0.0 0.00 0.00 0.00 94 1012.7
20260905094612 55 0 0.0 0.0 0.00 0.00 0.00 94 1012.6
20260905094058 55 0 0.0 0.0 0.00 0.00 0.00 94 1012.7
20260905093557 55 0 0.0 0.0 0.00 0.00 0.00 94 1012.7
20260905093101 56 0 0.0 0.0 0.00 0.00 0.00 94 1012.7
20260905092556 56 0 0.0 0.0 0.00 0.00 0.00 94 1012.6
20260905092057 56 0 0.0 0.0 0.00 0.00 0.00 94 1012.7
20260905091609 56 0 0.0 0.0 0.00 0.00 0.00 94 1012.7
20260905091056 56 0 0.0 0.0 0.00 0.00 0.00 94 1012.7
20260905090557 56 0 0.0 0.0 0.00 0.00 0.00 94 1012.7
20260905090103 56 0 0.0 0.0 0.00 0.00 0.00 94 1012.7
20260905085558 56 0 0.0 0.0 0.00 0.00 0.00 94 1012.7
20260905085100 56 0 0.0 0.0 0.00 0.00 0.00 93 1012.7
20260905084607 56 0 0.0 0.0 0.00 0.00 0.00 94 1012.6
20260905084057 57 0 0.0 0.0 0.00 0.00 0.00 93 1012.7
20260905083557 57 0 0.0 0.0 0.00 0.00 0.00 93 1012.7
20260905083058 57 0 0.0 0.0 0.00 0.00 0.00 94 1012.8
20260905082558 57 0 0.0 0.0 0.00 0.00 0.00 94 1012.7
20260905082057 57 0 0.0 0.0 0.00 0.00 0.00 93 1012.7
20260905081619 57 0 0.0 0.0 0.00 0.00 0.00 93 1012.7
20260905081056 57 0 0.0 0.0 0.00 0.00 0.00 93 1012.7
20260905080556 57 0 0.0 0.0 0.00 0.00 0.00 93 1012.8
20260905080107 58 0 0.0 0.0 0.00 0.00 0.00 93 1012.8
20260905075602 58 0 0.0 0.0 0.00 0.00 0.00 93 1012.8
20260905075057 58 0 0.0 0.0 0.00 0.00 0.00 93 1012.8
20260905074604 58 0 0.0 0.0 0.00 0.00 0.00 93 1012.8
20260905074057 58 0 0.0 0.0 0.00 0.00 0.00 93 1012.7
20260905073601 59 0 0.0 0.0 0.00 0.00 0.00 93 1012.7
20260905073100 59 0 0.0 0.0 0.00 0.00 0.00 93 1012.7
20260905072556 59 0 0.0 0.0 0.00 0.00 0.00 93 1012.9
20260905072100 59 0 0.0 0.0 0.00 0.00 0.00 93 1012.9
20260905071606 59 0 0.0 0.0 0.00 0.00 0.00 93 1012.8
20260905071102 60 0 0.0 0.0 0.00 0.00 0.00 93 1012.9
20260905070557 60 0 0.0 0.0 0.00 0.00 0.00 93 1013.0
20260905070105 60 0 0.0 0.0 0.00 0.00 0.00 93 1013.0
20260905065557 60 0 0.0 0.0 0.00 0.00 0.00 93 1012.9
20260905065057 60 0 0.0 0.0 0.00 0.00 0.00 93 1012.9
20260905064604 60 0 0.0 0.0 0.00 0.00 0.00 93 1013.1
20260905064057 60 0 0.0 0.0 0.00 0.00 0.00 93 1013.1
20260905063557 60 0 0.0 0.0 0.00 0.00 0.00 93 1013.1
20260905063123 61 0 0.0 0.0 0.00 0.00 0.00 92 1013.1
20260905062555 61 0 0.0 0.0 0.00 0.00 0.00 92 1013.1
20260905062056 61 0 0.0 0.0 0.00 0.00 0.00 92 1013.1
20260905061614 61 0 0.0 0.0 0.00 0.00 0.00 92 1013.0
20260905061057 62 0 0.0 0.0 0.00 0.00 0.00 92 1013.0
20260905060557 62 0 0.0 0.0 0.00 0.00 0.00 92 1013.0
20260905060105 62 0 0.0 0.0 0.00 0.00 0.00 92 1013.0
20260905055557 62 0 0.0 0.0 0.00 0.00 0.00 92 1013.0
20260905055057 63 0 0.0 0.0 0.00 0.00 0.00 92 1013.0
20260905054601 63 0 0.0 0.0 0.00 0.00 0.00 92 1013.0
20260905054058 63 0 0.0 0.0 0.00 0.00 0.00 92 1012.9
20260905053557 63 0 0.0 0.0 0.00 0.00 0.00 92 1013.1
20260905053100 63 0 0.0 0.0 0.00 0.00 0.00 93 1013.2
20260905052556 64 0 0.0 0.0 0.00 0.00 0.00 93 1013.1
20260905052057 64 0 0.0 0.0 0.00 0.00 0.00 93 1013.2
20260905051603 64 0 0.0 0.0 0.00 0.00 0.00 93 1013.2
20260905051057 64 0 0.0 0.0 0.00 0.00 0.00 93 1013.2
20260905050557 64 0 0.0 0.0 0.00 0.00 0.00 93 1013.2
20260905050106 63 0 0.0 0.0 0.00 0.00 0.00 92 1013.2
20260905045558 63 0 0.0 0.0 0.00 0.00 0.00 92 1013.3
20260905045056 63 0 0.0 0.0 0.00 0.00 0.00 92 1013.3
20260905044603 63 0 0.0 0.0 0.00 0.00 0.00 92 1013.4
20260905044057 63 0 0.0 0.0 0.00 0.00 0.00 92 1013.3
20260905043557 63 0 0.0 0.0 0.00 0.00 0.00 92 1013.3
20260905043132 63 0 0.0 0.0 0.00 0.00 0.00 92 1013.3
20260905042555 63 0 0.0 0.0 0.00 0.00 0.00 92 1013.2
20260905042052 63 0 0.0 0.0 0.00 0.00 0.00 92 1013.2
20260905041602 63 0 0.0 0.0 0.00 0.00 0.00 92 1013.2
20260905041053 63 0 0.0 0.0 0.00 0.00 0.00 92 1013.2
20260905040556 63 0 0.0 0.0 0.00 0.00 0.00 92 1013.2
20260905040122 63 0 0.0 0.0 0.00 0.00 0.00 91 1013.2
20260905035553 63 0 0.0 0.0 0.00 0.00 0.00 91 1013.1
20260905035054 63 0 0.0 0.0 0.00 0.00 0.00 91 1013.2
20260905034602 63 0 0.0 0.0 0.00 0.00 0.00 91 1013.2
20260905034056 63 0 0.0 0.0 0.00 0.00 0.00 91 1013.2
20260905033553 63 0 0.0 0.0 0.00 0.00 0.00 91 1013.3
20260905033104 63 0 0.0 0.0 0.00 0.00 0.00 91 1013.2
20260905032556 63 0 0.0 0.0 0.00 0.00 0.00 90 1013.2
20260905032057 63 0 0.0 0.0 0.00 0.00 0.00 90 1013.2